User: anonymous   Login
Location: Fort Wayne
(41.1310°N, 85.1290°W)
Time: 12:10:34
(UTC-04:00)
Language:

OPAL - Orbit

View from above orbital plane
View from above orbital plane
View from above satellite
View from above satellite

Ground track
Ground track

The orbit data is extracted from the following two-line orbital elements,

1 26063U 00004C   16126.37994934  .00000022  00000-0  27356-4 0  9996
2 26063 100.1890  49.0437 0036829  19.4699 340.7878 14.36613739852826
Epoch (UTC): 05 May 2016 09:07:07
Eccentricity: 0.0036829
inclination: 100.1890°
perigee height: 743 km
apogee height: 796 km
right ascension of ascending node: 49.0437°
argument of perigee: 19.4699°
revolutions per day: 14.36613739
mean anomaly at epoch: 340.7878°
orbit number at epoch: 85282

The dashed part of the orbit path shows where the satellite is in the earth's shadow,  

DLR